This demonstration page uses our WeatherBlox Daily Observations layout. Learn more.

Hourly Observations for December 9, 2018

Temp ( °F °C ) Dew Point ( °F °C ) Humidity (%) Winds ( mph kmh ) Pressure ( in mb ) Visibility ( mi km ) Precip ( " mm )
12:15 am 00:15 Clear 21 -6 19 -7.5 89 89 Calm 30.45 1031 10 16.0934 0 0
12:35 am 00:35 Clear 21 -6.1 18 -7.7 89 89 Calm 30.45 1031 10 16.0934 0 0
12:55 am 00:55 Clear 21 -5.9 19 -7.5 89 89 SSW 6 9 30.45 1031 10 16.0934 0 0
1:15 am 01:15 Clear 21 -6.3 18 -7.8 89 89 SSW 6 9 30.45 1031 10 16.0934 0 0
1:35 am 01:35 Clear 19 -7 17 -8.5 89 89 SSW 5 7 30.48 1032 10 16.0934 0 0
1:55 am 01:55 Clear 19 -7.4 17 -8.5 92 92 SW 3 6 30.48 1032 10 16.0934 0 0
2:15 am 02:15 Clear 17 -8.1 14 -10.2 85 85 Calm 30.48 1032 10 16.0934 0 0
2:35 am 02:35 Clear 14 -9.9 13 -10.7 94 94 Calm 30.5 1033 10 16.0934 0 0
2:55 am 02:55 Clear 14 -10 13 -10.7 95 95 Calm 30.5 1033 10 16.0934 0 0
3:15 am 03:15 Clear 11 -11.5 10 -12.1 95 95 NNW 5 7 30.5 1033 10 16.0934 0 0
3:35 am 03:35 Clear 13 -10.5 12 -11 96 96 WNW 6 9 30.5 1033 10 16.0934 0 0
3:55 am 03:55 Clear 16 -9.1 15 -9.3 98 98 W 6 9 30.48 1032 10 16.0934 0 0
4:15 am 04:15 Clear 17 -8.2 17 -8.4 98 98 W 7 11 30.48 1032 10 16.0934 0 0
4:35 am 04:35 Clear 17 -8.1 17 -8.4 98 98 WNW 8 13 30.48 1032 10 16.0934 0 0
4:55 am 04:55 Clear 16 -9 15 -9.5 96 96 WNW 12 19 30.48 1032 10 16.0934 0 0
5:15 am 05:15 Clear 16 -8.7 15 -9.3 95 95 WNW 10 17 30.48 1032 10 16.0934 0 0
5:35 am 05:35 Clear 16 -8.8 15 -9.4 95 95 NW 9 15 30.48 1032 10 16.0934 0 0
5:55 am 05:55 Clear 19 -7.4 18 -7.9 96 96 NW 8 13 30.48 1032 10 16.0934 0 0
6:15 am 06:15 Clear 19 -7.1 18 -7.7 96 96 WNW 7 11 30.48 1032 10 16.0934 0 0
6:35 am 06:35 Clear 18 -7.6 17 -8.5 93 93 NW 9 15 30.48 1032 10 16.0934 0 0
6:55 am 06:55 Clear 19 -7.5 17 -8.3 94 94 NW 9 15 30.48 1032 10 16.0934 0 0
7:15 am 07:15 Clear 18 -7.6 16 -8.7 92 92 NW 8 13 30.48 1032 10 16.0934 0 0
7:35 am 07:35 Clear 19 -7.4 17 -8.6 91 91 WNW 9 15 30.48 1032 10 16.0934 0 0
7:55 am 07:55 Sunny 19 -7 16 -8.7 88 88 NW 8 13 30.48 1032 10 16.0934 0 0
8:15 am 08:15 Sunny 20 -6.7 16 -8.7 86 86 NW 9 15 30.45 1031 10 16.0934 0 0
8:35 am 08:35 Sunny 19 -7 15 -9.2 85 85 NW 8 13 30.48 1032 10 16.0934 0 0
8:55 am 08:55 Sunny 20 -6.8 16 -8.9 85 85 WNW 7 11 30.45 1031 10 16.0934 0 0
9:15 am 09:15 Sunny 22 -5.5 17 -8.1 82 82 WNW 7 11 30.45 1031 10 16.0934 0 0
9:35 am 09:35 Sunny 25 -4 18 -7.9 75 75 WNW 5 7 30.48 1032 10 16.0934 0 0
9:55 am 09:55 Sunny 24 -4.2 18 -7.9 76 76 NW 5 7 30.48 1032 10 16.0934 0 0
10:15 am 10:15 Sunny 25 -4 19 -7.4 77 77 NNW 3 6 30.48 1032 10 16.0934 0 0
10:35 am 10:35 Sunny 26 -3.3 19 -7.1 75 75 NW 3 6 30.45 1031 10 16.0934 0 0
10:55 am 10:55 Sunny 27 -2.9 20 -6.8 75 75 NW 3 6 30.45 1031 10 16.0934 0 0
11:15 am 11:15 Sunny 28 -2.5 20 -6.6 74 74 NW 8 13 30.45 1031 10 16.0934 0 0
11:35 am 11:35 Sunny 28 -2.5 20 -6.4 75 75 WNW 7 11 30.45 1031 10 16.0934 0 0
11:55 am 11:55 Sunny 28 -2.1 21 -6.1 74 74 WNW 9 15 30.45 1031 10 16.0934 0 0
12:15 pm 12:15 Sunny 29 -1.8 21 -6 73 73 WNW 8 13 30.42 1030 10 16.0934 0 0
12:35 pm 12:35 Sunny 30 -1.2 22 -5.6 72 72 WNW 7 11 30.42 1030 10 16.0934 0 0
12:55 pm 12:55 Sunny 31 -0.7 22 -5.6 70 70 WNW 7 11 30.39 1029 10 16.0934 0 0
1:15 pm 13:15 Sunny 31 -0.3 23 -5.2 70 70 NW 8 13 30.39 1029 10 16.0934 0 0
1:35 pm 13:35 Sunny 32 -0.2 23 -4.9 71 71 WNW 10 17 30.39 1029 10 16.0934 0 0
1:55 pm 13:55 Sunny 32 0 24 -4.6 71 71 WNW 7 11 30.39 1029 10 16.0934 0 0
2:15 pm 14:15 Sunny 32 0 24 -4.7 71 71 WNW 6 9 30.39 1029 10 16.0934 0 0
2:35 pm 14:35 Sunny 32 0.1 23 -5 69 69 WNW 8 13 30.39 1029 10 16.0934 0 0
2:55 pm 14:55 Sunny 32 0.2 23 -4.9 69 69 NW 6 9 30.39 1029 10 16.0934 0 0
3:15 pm 15:15 Sunny 32 0.1 22 -5.5 66 66 NW 8 13 30.39 1029 10 16.0934 0 0
3:35 pm 15:35 Sunny 32 -0.2 22 -5.7 67 67 NW 7 11 30.39 1029 10 16.0934 0 0
3:55 pm 15:55 Sunny 31 -0.4 22 -5.5 69 69 NW 6 9 30.39 1029 10 16.0934 0 0
4:15 pm 16:15 Sunny 31 -0.7 22 -5.8 69 69 NW 5 7 30.39 1029 10 16.0934 0 0
4:35 pm 16:35 Sunny 30 -1.1 21 -6.1 69 69 NW 5 7 30.42 1030 10 16.0934 0 0
4:55 pm 16:55 Sunny 29 -1.9 20 -6.5 71 71 WNW 5 7 30.42 1030 10 16.0934 0 0
5:15 pm 17:15 Clear 27 -2.6 20 -6.5 75 75 WNW 6 9 30.42 1030 10 16.0934 0 0
5:35 pm 17:35 Clear 27 -2.8 20 -6.9 74 74 W 5 7 30.42 1030 10 16.0934 0 0
5:55 pm 17:55 Clear 26 -3.6 19 -7.4 75 75 WNW 6 9 30.42 1030 10 16.0934 0 0
6:15 pm 18:15 Clear 24 -4.7 18 -7.7 80 80 NNW 6 9 30.45 1031 10 16.0934 0 0
6:35 pm 18:35 Clear 23 -5 18 -7.7 82 82 NNW 7 11 30.45 1031 10 16.0934 0 0
6:55 pm 18:55 Clear 24 -4.3 18 -7.9 76 76 NNW 6 9 30.45 1031 10 16.0934 0 0
7:15 pm 19:15 Clear 24 -4.6 18 -8 77 77 NNW 6 9 30.45 1031 10 16.0934 0 0
7:35 pm 19:35 Clear 23 -5 17 -8.2 79 79 NNW 7 11 30.45 1031 10 16.0934 0 0
7:55 pm 19:55 Partly Cloudy 23 -4.8 17 -8.1 78 78 N 5 7 30.45 1031 10 16.0934 0 0
8:15 pm 20:15 Partly Cloudy 21 -6 17 -8.5 83 83 NNW 3 6 30.45 1031 10 16.0934 0 0
8:35 pm 20:35 Partly Cloudy 20 -6.8 16 -8.7 87 87 NNW 3 6 30.45 1031 10 16.0934 0 0
8:55 pm 20:55 Partly Cloudy 17 -8.3 15 -9.7 90 90 Calm 30.48 1032 10 16.0934 0 0
9:15 pm 21:15 Clear 17 -8.5 15 -9.5 93 93 Calm 30.48 1032 10 16.0934 0 0
9:35 pm 21:35 Clear 17 -8.5 15 -9.6 92 92 Calm 30.48 1032 10 16.0934 0 0
9:55 pm 21:55 Clear 16 -8.7 15 -9.6 93 93 Calm 30.48 1032 10 16.0934 0 0
10:15 pm 22:15 Clear 15 -9.3 14 -10 95 95 Calm 30.48 1032 10 16.0934 0 0
10:35 pm 22:35 Clear 16 -9 15 -9.6 95 95 Calm 30.48 1032 10 16.0934 0 0
10:55 pm 22:55 Clear 15 -9.6 14 -10.1 96 96 NW 3 6 30.48 1032 10 16.0934 0 0
11:15 pm 23:15 Clear 13 -10.4 12 -10.9 96 96 WNW 3 6 30.5 1033 10 16.0934 0 0
11:35 pm 23:35 Clear 15 -9.6 14 -9.9 98 98 WNW 5 7 30.48 1032 10 16.0934 0 0
11:55 pm 23:55 Clear 16 -9 15 -9.4 97 97 W 5 7 30.48 1032 10 16.0934 0 0

Powered by AerisWeather